Location: Andershausen
(51.8462°N, 9.8595°E)
Time: 23:43:22
(UTC+00:00)

USA 281 - Pass Details

Date: 18 November 2025
Orbit: 1079 x 1080 km, 106.0° (Epoch: 27 November)

Event Time Altitude Azimuth Distance (km) Brightness Sun altitude
Exits shadow 16:24:37 10° 80° (E) 2,907 4.8 -9.0°
Maximum altitude 16:29:18 22° 34° (NNE) 2,176 4.4 -9.7°
Drops below altitude 10° 16:34:04 10° 347° (NNW) 2,933 5.5 -10.4°
Sets 16:37:10 0° 333° (NNW) 3,892 6.3 -10.9°
